Regional Weather Roundup
Issued by NWS

Home | Current Version | Previous Version | Text Only | Print | Product List | Glossary On
Versions: 1 2 3 4 5 6 7 8 9 10 11 12 13 14 15 16 17 18 19 20 21 22 23 24 25 26 27 28 29 30 31 32 33 34 35 36 37 38 39 40 41 42 43 44 45 46 47 48 49 50
000
ASUS44 KOUN 301510
RWROK

WEATHER ROUNDUP FOR OKLAHOMA
NATIONAL WEATHER SERVICE NORMAN OK
1000 AM CDT MON MAY 30 2016

NOTE: "FAIR" INDICATES FEW OR NO CLOUDS BELOW 12,000 FEET WITH NO
      SIGNIFICANT WEATHER AND/OR OBSTRUCTIONS TO VISIBILITY.

OKZ001>007-009>012-014-015-017-301600-
NORTHWEST OKLAHOMA AND THE PANHANDLE

CITY           SKY/WX    TMP DP  RH WIND       PRES   REMARKS
GAGE           SUNNY     70  56  61 S10       30.07S
GUYMON         SUNNY     70  54  56 SW9       30.04F
ENID/WOODRING  MOSUNNY   77  64  65 S6        30.05R
$$

OKZ016-021>023-033>039-044-045-301600-
SOUTHWEST OKLAHOMA

CITY           SKY/WX    TMP DP  RH WIND       PRES   REMARKS
LAWTON/REGL    SUNNY     73  64  73 SE8       30.04F
CLINTON        SUNNY     74  57  55 S8        30.08F
HOBART         SUNNY     73  61  65 SW6       30.06F
$$

OKZ018>020-024>031-301600-
CENTRAL OKLAHOMA

CITY           SKY/WX    TMP DP  RH WIND       PRES   REMARKS
OKLAHOMA CITY  CLOUDY    69  64  84 SE6       30.06R
OKC/WILEY POST PTSUNNY   73  63  70 S9        30.06R
STILLWATER     CLOUDY    71  64  78 SE8       30.06F
GUTHRIE        CLOUDY    71  65  81 SE8       30.06S
$$

OKZ008-013-054>072-301600-
NORTHEAST OKLAHOMA

CITY           SKY/WX    TMP DP  RH WIND       PRES   REMARKS
TULSA          LGT RAIN  70  66  87 CALM      30.07R
TULSA/JONES    CLOUDY    71  65  81 S6        30.08S
PONCA CITY     CLOUDY    71  63  75 SW5       30.06R
BARTLESVILLE   CLOUDY    70  64  81 S5        30.09R
MUSKOGEE       LGT RAIN  70  67  90 SE5       30.09F
$$

OKZ032-040>043-046>053-073>077-301600-
SOUTH CENTRAL/SOUTHEAST OKLAHOMA

CITY           SKY/WX    TMP DP  RH WIND       PRES   REMARKS
ARDMORE/DWNTWN CLOUDY    70  64  83 S5        30.05R
MCALESTER      LGT RAIN  68  65  90 E5        30.06F
$$




USA.gov is the U.S. government's official web portal to all federal, state and local government web resources and services.